Hourly Data Report for September 10, 2017

All times are specified in Local Standard Time (LST). Add 1 hour to adjust for Daylight Saving Time where and when it is observed.

WOODSTOCK NEWBRIDGE
NEW BRUNSWICK

46°09'08.000" N
67°32'34.000" W
154.00 m
8105603
71606
EWD

Download Data

Hourly Data (September 2017)
Hourly Data Report for September 10, 2017
Temp Definition
°C
Dew Point Temp Definition
°C
Rel Hum Definition
%
Wind Dir Definition
10's deg

Wind Spd Definition
km/h
Visibility Definition
km
Stn Press Definition
kPa
Hmdx Definition


Wind Chill Definition


Weather Definition


TIME
00:00 9.3 8.3 94   0   100.70     LegendNANA
01:00 7.9 7.3 96   0   100.70     LegendNANA
02:00 6.9 6.2 95   0   100.72     LegendNANA
03:00 7.7 7.5 99 34 4   100.70     LegendNANA
04:00 9.2 9.0 99   0   100.74     LegendNANA
05:00 9.5 9.4 99 34 3   100.79     LegendNANA
06:00 9.0 8.8 99 34 3   100.84     LegendNANA
07:00 8.5 8.4 99 32 4   100.87     LegendNANA
08:00 9.0 8.8 99 32 6   100.88     LegendNANA
09:00 10.4 9.8 96 31 5   100.88     LegendNANA
10:00 14.1 11.4 84 28 7   100.86     LegendNANA
11:00 16.8 10.5 66 31 10   100.80     LegendNANA
12:00 17.2 10.3 64 31 8   100.77     LegendNANA
13:00 17.7 8.0 53 31 14   100.73     LegendNANA
14:00 17.2 6.0 48 33 11   100.69     LegendNANA
15:00 16.8 7.1 53 31 11   100.63     LegendNANA
16:00 15.5 6.7 56 31 10   100.62     LegendNANA
17:00 15.2 6.5 56 31 9   100.60     LegendNANA
18:00 14.3 7.4 63 31 6   100.58     LegendNANA
19:00 13.2 7.4 68 29 7   100.61     LegendNANA
20:00 12.0 7.5 74 29 4   100.60     LegendNANA
21:00 10.1 8.3 88 0 1   100.57     LegendNANA
22:00 9.6 8.4 92   0   100.55     LegendNANA
23:00 9.6 8.6 93   0   100.51     LegendNANA

Notes on Data Quality.

Legend

  • E = Estimated
  • M = Missing
  • NA = Not Available
  • ‡ = Partner data that is not subject to review by the National Climate Archives
Date modified: